CZ-6A DEB, 54466

Orbit data source: Space-Track

CZ-6A DEB, 54466 is space debris in SSO originally from a launch on Fri, 11 Nov 2022 UTC launched from the Taiyaun Space Center, China (TSC). Debris objects in space refer to the collection of defunct objects orbiting the Earth. Examples of debris include non-operational satellites, rocket bodies, and fragments generated from explosions, collisions, or faulty payload assembly.

Loading next visibility...
Identifier
54466, 2022-151GS
Orbit
SSO
Country
Flag of CNCN / PRC
Related business
Manufacturer
SAST
Mission
Spacecraft
Bus & Motor
Unknown
Mass
Unknown
Launch date (UTC)
2022-11-11 (4 years ago)
Launch vehicle
Unknown
Launch site
Taiyaun Space Center, China (TSC)
Object type
Payload
Rocket body
Debris
Shape & HBR
Unknown shape, 0.2 m
Radar Cross Section
Medium (>0.1 m² and <1 m²)

Expand to show TLE details & history
Last TLE update: 2 days ago

TLE from 2 days ago
0 CZ-6A DEB
1 54466U 22151GS  26170.98056819  .00000870  00000-0  45054-3 0  9994
2 54466  98.8229 182.7870 0027329 296.7837  63.0543 14.17327922185781
Epoch: 2026-06-19T23:32Z
TLE epoch observation values (Epoch: 2026-06-19T23:32:01.091Z)
Latitude
0.00002°
Longitude
-78.41931°
Altitude
828.42 km
Speed
7.443 km/s
True Right ascension
12h 11m 08s
True Declination
0° 00' 00"
Sunlit
Object was in daylight at epoch
Visualization orbit readout
Latitude
Unknown
Longitude
Unknown
Altitude
Unknown
Speed
Unknown
Apparent Right ascension
Unknown
Apparent Declination
Unknown
Sunlit
N/A
Visualization observer readout
Local Sidereal Time
21:57:42
Azimuth
Unknown
Elevation
Unknown
Doppler factor
Unknown
Orbital elements
Apogee altitude
851.275 km
Perigee altitude
811.868 km
Semi-major axis
7,209.708 km
Eccentricity
0.00273
Inclination
98.8229°
RAAN
182.787°
Arg. of periapsis
296.7837°
True anomaly
63.3339°
Mean anomaly
63.0543°
Eccentric anomaly
63.19406°
Mean motion
3.54541 °/min
Orbital period
101.54 mins
BSTAR
0.00045054
Loading maneuver chart data...
Computing Atmospheric mass density...
Loading historical data...
Loading historical data...
Loading historical data...
Loading historical data...
Loading historical data...
Loading historical data...
Loading historical data...

Documentation

Showing up to 5 results
|